User: anonymous   Login
Location: Oshawa
(43.9000°N, 78.8670°W)
Time: 07:15:12
(UTC-04:00)
Language:

IDEFIX/ARIANE 42P - Orbit

View from above orbital plane
View from above orbital plane
View from above satellite
View from above satellite

Ground track
Ground track

The orbit data is extracted from the following two-line orbital elements,

1 27422U 02021B   17117.96455998 -.00000017 +00000-0 +90842-5 0  9991
2 27422 098.2299 121.0172 0012922 031.1522 329.0425 14.29252915781395
Epoch (UTC): 27 April 2017 23:08:57
Eccentricity: 0.0012922
inclination: 98.2299°
perigee height: 785 km
apogee height: 803 km
right ascension of ascending node: 121.0172°
argument of perigee: 31.1522°
revolutions per day: 14.29252915
mean anomaly at epoch: 329.0425°
orbit number at epoch: 78139

The dashed part of the orbit path shows where the satellite is in the earth's shadow,  

DLR